Time,TemperatureF,DewpointF,PressureIn,WindDirection,WindDirectionDegrees,WindSpeedMPH,WindSpeedGustMPH,Humidity,HourlyPrecipIn,Conditions,Clouds,dailyrainin,SoftwareType,DateUTC
2013-06-08 00:03:00,53.0,52.0,30.00,East,99,0.0,2.0,96,0.14,,,-99.99,,2013-06-08 04:03:00,
2013-06-08 00:13:00,53.0,52.0,30.00,East,99,0.0,2.0,96,0.14,,,-99.99,,2013-06-08 04:13:00,
2013-06-08 00:23:00,53.0,52.0,30.00,NE,42,1.0,5.0,96,0.06,,,-99.99,,2013-06-08 04:23:00,
2013-06-08 00:33:00,53.0,52.0,30.00,NE,42,1.0,5.0,96,0.06,,,-99.99,,2013-06-08 04:33:00,
2013-06-08 00:42:00,53.0,52.0,30.00,NE,42,1.0,5.0,96,0.06,,,-99.99,,2013-06-08 04:42:00,
2013-06-08 00:53:00,53.0,52.0,30.00,NE,42,1.0,5.0,96,0.06,,,-99.99,,2013-06-08 04:53:00,
2013-06-08 08:22:00,52.0,51.0,29.75,ESE,120,1.0,6.0,97,0.25,,,-99.99,,2013-06-08 12:22:00,
2013-06-08 08:33:00,52.0,51.0,29.75,ESE,120,1.0,6.0,97,0.25,,,-99.99,,2013-06-08 12:33:00,
2013-06-08 08:42:00,52.0,51.0,29.75,ESE,120,1.0,6.0,97,0.25,,,-99.99,,2013-06-08 12:42:00,
2013-06-08 08:52:00,52.0,51.0,29.75,ESE,120,1.0,6.0,97,0.25,,,-99.99,,2013-06-08 12:52:00,
2013-06-08 09:02:00,53.0,52.0,29.74,NE,35,0.0,6.0,98,0.32,,,-99.99,,2013-06-08 13:02:00,
2013-06-08 09:12:00,53.0,52.0,29.74,NE,35,0.0,6.0,98,0.32,,,-99.99,,2013-06-08 13:12:00,
2013-06-08 09:22:00,53.0,52.0,29.74,NE,35,0.0,6.0,98,0.32,,,-99.99,,2013-06-08 13:22:00,
2013-06-08 09:32:00,53.0,52.0,29.71,East,81,0.0,7.0,98,0.00,,,-99.99,,2013-06-08 13:32:00,
2013-06-08 09:42:00,53.0,52.0,29.71,East,81,0.0,7.0,98,0.00,,,-99.99,,2013-06-08 13:42:00,
2013-06-08 09:53:00,54.0,53.0,29.70,ESE,113,2.0,7.0,98,0.00,,,-99.99,,2013-06-08 13:53:00,
2013-06-08 10:02:00,54.0,53.0,29.68,NNE,32,0.0,6.0,98,0.00,,,-99.99,,2013-06-08 14:02:00,
2013-06-08 10:12:00,54.0,53.0,29.68,NNE,32,0.0,6.0,98,0.00,,,-99.99,,2013-06-08 14:12:00,
2013-06-08 10:22:00,55.0,54.0,29.68,North,349,2.0,9.0,98,0.00,,,-99.99,,2013-06-08 14:22:00,
2013-06-08 10:32:00,55.0,54.0,29.68,North,349,2.0,9.0,98,0.00,,,-99.99,,2013-06-08 14:32:00,
2013-06-08 10:42:00,55.0,54.0,29.68,North,349,2.0,9.0,98,0.00,,,-99.99,,2013-06-08 14:42:00,
2013-06-08 10:52:00,55.0,54.0,29.68,North,349,2.0,9.0,98,0.00,,,-99.99,,2013-06-08 14:52:00,
2013-06-08 11:10:00,56.0,55.0,29.64,South,169,1.0,4.0,98,0.00,,,-99.99,,2013-06-08 15:10:00,
2013-06-08 11:22:00,56.0,55.0,29.65,ENE,57,0.0,8.0,98,0.00,,,-99.99,,2013-06-08 15:22:00,
2013-06-08 11:33:00,56.0,55.0,29.64,South,169,1.0,4.0,98,0.00,,,-99.99,,2013-06-08 15:33:00,
2013-06-08 11:43:00,56.0,55.0,29.64,South,169,1.0,4.0,98,0.00,,,-99.99,,2013-06-08 15:43:00,
2013-06-08 11:53:00,56.0,55.0,29.64,South,169,1.0,4.0,98,0.00,,,-99.99,,2013-06-08 15:53:00,
2013-06-08 12:03:00,56.0,55.0,29.64,South,169,1.0,4.0,98,0.00,,,-99.99,,2013-06-08 16:03:00,
2013-06-08 12:53:00,59.0,58.0,29.62,NNW,336,0.0,7.0,97,0.00,,,-99.99,,2013-06-08 16:53:00,
2013-06-08 13:02:00,59.0,58.0,29.62,NNW,334,0.0,7.0,97,0.00,,,-99.99,,2013-06-08 17:02:00,
2013-06-08 13:12:00,59.0,58.0,29.62,NNW,334,0.0,7.0,97,0.00,,,-99.99,,2013-06-08 17:12:00,
2013-06-08 13:23:00,59.0,58.0,29.62,NW,320,2.0,7.0,97,0.00,,,-99.99,,2013-06-08 17:23:00,
2013-06-08 13:32:00,59.0,58.0,29.62,NW,322,2.0,10.0,96,0.00,,,-99.99,,2013-06-08 17:32:00,
2013-06-08 13:42:00,59.0,58.0,29.62,NW,322,2.0,10.0,96,0.00,,,-99.99,,2013-06-08 17:42:00,
2013-06-08 13:52:00,59.0,57.0,29.63,NNE,14,0.0,13.0,94,0.00,,,-99.99,,2013-06-08 17:52:00,
2013-06-08 14:02:00,60.0,58.0,29.63,NW,307,2.0,13.0,94,0.00,,,-99.99,,2013-06-08 18:02:00,
2013-06-08 14:12:00,60.0,58.0,29.63,NW,307,2.0,13.0,94,0.00,,,-99.99,,2013-06-08 18:12:00,
2013-06-08 14:22:00,60.0,59.0,29.64,NW,325,7.0,15.0,95,0.00,,,-99.99,,2013-06-08 18:22:00,
2013-06-08 14:32:00,61.0,59.0,29.64,NNW,332,4.0,11.0,94,0.00,,,-99.99,,2013-06-08 18:32:00,
2013-06-08 14:42:00,61.0,59.0,29.64,NNW,332,4.0,11.0,94,0.00,,,-99.99,,2013-06-08 18:42:00,
2013-06-08 14:52:00,61.0,59.0,29.64,NNW,327,4.0,11.0,94,0.00,,,-99.99,,2013-06-08 18:52:00,
2013-06-08 15:03:00,61.0,59.0,29.66,NNW,343,10.0,12.0,94,0.00,,,-99.99,,2013-06-08 19:03:00,
2013-06-08 15:12:00,61.0,59.0,29.66,NNW,343,10.0,12.0,94,0.00,,,-99.99,,2013-06-08 19:12:00,
2013-06-08 15:22:00,61.0,59.0,29.66,NW,323,2.0,11.0,93,0.00,,,-99.99,,2013-06-08 19:22:00,
2013-06-08 15:32:00,61.0,59.0,29.66,WNW,303,0.0,13.0,94,0.00,,,-99.99,,2013-06-08 19:32:00,
2013-06-08 15:42:00,61.0,59.0,29.66,WNW,303,0.0,13.0,94,0.00,,,-99.99,,2013-06-08 19:42:00,
2013-06-08 15:53:00,62.0,59.0,29.67,NW,306,4.0,10.0,90,0.00,,,-99.99,,2013-06-08 19:53:00,
2013-06-08 16:02:00,62.0,59.0,29.69,North,353,6.0,11.0,90,0.00,,,-99.99,,2013-06-08 20:02:00,
2013-06-08 16:12:00,62.0,59.0,29.69,North,353,6.0,11.0,90,0.00,,,-99.99,,2013-06-08 20:12:00,
2013-06-08 16:22:00,61.0,58.0,29.70,NW,326,8.0,13.0,89,0.00,,,-99.99,,2013-06-08 20:22:00,
2013-06-08 16:32:00,62.0,58.0,29.70,North,352,1.0,17.0,88,0.00,,,-99.99,,2013-06-08 20:32:00,
2013-06-08 16:42:00,62.0,58.0,29.70,North,352,1.0,17.0,88,0.00,,,-99.99,,2013-06-08 20:42:00,
2013-06-08 16:52:00,62.0,58.0,29.71,NW,309,3.0,12.0,86,0.00,,,-99.99,,2013-06-08 20:52:00,
2013-06-08 17:02:00,62.0,58.0,29.73,NW,314,1.0,12.0,86,0.00,,,-99.99,,2013-06-08 21:02:00,
2013-06-08 17:12:00,62.0,58.0,29.73,NW,314,1.0,12.0,86,0.00,,,-99.99,,2013-06-08 21:12:00,
2013-06-08 17:22:00,61.0,58.0,29.75,WNW,292,4.0,12.0,90,0.00,,,-99.99,,2013-06-08 21:22:00,
2013-06-08 17:33:00,61.0,57.0,29.75,NW,311,6.0,10.0,88,0.00,,,-99.99,,2013-06-08 21:33:00,
2013-06-08 17:43:00,61.0,57.0,29.75,NW,311,6.0,10.0,88,0.00,,,-99.99,,2013-06-08 21:43:00,
2013-06-08 17:53:00,61.0,58.0,29.76,NW,305,5.0,8.0,90,0.00,,,-99.99,,2013-06-08 21:53:00,
2013-06-08 18:02:00,60.0,57.0,29.77,North,351,3.0,14.0,89,0.00,,,-99.99,,2013-06-08 22:02:00,
2013-06-08 18:12:00,60.0,57.0,29.77,North,351,3.0,14.0,89,0.00,,,-99.99,,2013-06-08 22:12:00,
2013-06-08 18:23:00,59.0,56.0,29.78,WNW,299,4.0,10.0,90,0.00,,,-99.99,,2013-06-08 22:23:00,
2013-06-08 18:33:00,59.0,56.0,29.80,NNW,332,4.0,8.0,91,0.00,,,-99.99,,2013-06-08 22:33:00,
2013-06-08 18:42:00,59.0,57.0,29.81,WNW,298,4.0,10.0,92,0.00,,,-99.99,,2013-06-08 22:42:00,
2013-06-08 18:53:00,59.0,57.0,29.81,WNW,298,4.0,10.0,92,0.00,,,-99.99,,2013-06-08 22:53:00,
2013-06-08 19:02:00,59.0,57.0,29.84,NW,313,0.0,12.0,93,0.00,,,-99.99,,2013-06-08 23:02:00,
2013-06-08 19:12:00,59.0,57.0,29.83,NNW,329,2.0,6.0,92,0.00,,,-99.99,,2013-06-08 23:12:00,
2013-06-08 19:22:00,59.0,57.0,29.83,NNW,329,2.0,6.0,92,0.00,,,-99.99,,2013-06-08 23:22:00,
2013-06-08 19:32:00,58.0,56.0,29.84,NW,325,5.0,10.0,92,0.00,,,-99.99,,2013-06-08 23:32:00,
2013-06-08 19:42:00,58.0,56.0,29.84,NW,325,5.0,10.0,92,0.00,,,-99.99,,2013-06-08 23:42:00,
2013-06-08 19:52:00,58.0,56.0,29.85,NW,310,0.0,3.0,92,0.00,,,-99.99,,2013-06-08 23:52:00,
2013-06-08 20:02:00,58.0,56.0,29.85,NW,307,0.0,4.0,93,0.00,,,-99.99,,2013-06-09 00:02:00,
2013-06-08 20:12:00,58.0,56.0,29.85,NW,307,0.0,4.0,93,0.00,,,-99.99,,2013-06-09 00:12:00,
2013-06-08 20:22:00,58.0,56.0,29.87,NW,308,0.0,2.0,93,0.00,,,-99.99,,2013-06-09 00:22:00,
2013-06-08 20:32:00,57.0,55.0,29.88,NW,308,0.0,1.0,94,0.00,,,-99.99,,2013-06-09 00:32:00,
2013-06-08 20:42:00,57.0,55.0,29.88,NW,308,0.0,1.0,94,0.00,,,-99.99,,2013-06-09 00:42:00,
2013-06-08 20:52:00,57.0,55.0,29.88,NW,308,0.0,1.0,94,0.00,,,-99.99,,2013-06-09 00:52:00,
2013-06-08 21:02:00,57.0,56.0,29.90,NW,308,0.0,0.0,95,0.00,,,-99.99,,2013-06-09 01:02:00,
2013-06-08 21:12:00,56.0,55.0,29.91,NW,308,0.0,0.0,95,0.00,,,-99.99,,2013-06-09 01:12:00,
2013-06-08 21:22:00,56.0,55.0,29.91,NW,308,0.0,0.0,95,0.00,,,-99.99,,2013-06-09 01:22:00,
2013-06-08 21:32:00,56.0,55.0,29.91,NW,308,0.0,0.0,95,0.00,,,-99.99,,2013-06-09 01:32:00,
2013-06-08 21:42:00,56.0,55.0,29.91,NW,308,0.0,0.0,95,0.00,,,-99.99,,2013-06-09 01:42:00,
2013-06-08 21:52:00,56.0,55.0,29.91,NW,308,0.0,0.0,95,0.00,,,-99.99,,2013-06-09 01:52:00,
2013-06-08 22:02:00,56.0,54.0,29.91,NW,308,0.0,0.0,94,0.00,,,-99.99,,2013-06-09 02:02:00,
2013-06-08 22:12:00,56.0,54.0,29.91,NW,308,0.0,0.0,94,0.00,,,-99.99,,2013-06-09 02:12:00,
2013-06-08 22:22:00,56.0,54.0,29.92,NW,308,0.0,0.0,94,0.00,,,-99.99,,2013-06-09 02:22:00,
2013-06-08 22:32:00,55.0,53.0,29.92,NW,308,0.0,0.0,94,0.00,,,-99.99,,2013-06-09 02:32:00,
2013-06-08 22:42:00,55.0,53.0,29.92,NW,308,0.0,0.0,94,0.00,,,-99.99,,2013-06-09 02:42:00,
2013-06-08 22:52:00,55.0,53.0,29.93,NW,308,0.0,0.0,93,0.00,,,-99.99,,2013-06-09 02:52:00,
2013-06-08 23:02:00,55.0,53.0,29.93,NW,308,0.0,0.0,94,0.00,,,-99.99,,2013-06-09 03:02:00,
2013-06-08 23:12:00,55.0,53.0,29.93,NW,308,0.0,0.0,94,0.00,,,-99.99,,2013-06-09 03:12:00,
2013-06-08 23:22:00,54.0,52.0,29.93,NW,308,0.0,0.0,94,0.00,,,-99.99,,2013-06-09 03:22:00,
2013-06-08 23:33:00,54.0,53.0,29.94,NW,308,0.0,0.0,95,0.00,,,-99.99,,2013-06-09 03:33:00,
2013-06-08 23:43:00,54.0,53.0,29.94,NW,308,0.0,0.0,95,0.00,,,-99.99,,2013-06-09 03:43:00,
2013-06-08 23:53:00,54.0,53.0,29.94,NW,308,0.0,0.0,95,0.00,,,-99.99,,2013-06-09 03:53:00,